Weather History for Glens Falls, NY

Change the Weather History Date:

Thursday, September 26, 2013

  Actual Average Record
Temperature  
Mean Temperature 53 °F 54 °F  
Max Temperature 65 °F 66 °F 131 °F (2000)
Min Temperature 41 °F 42 °F 28 °F (1978)
Degree Days  
Heating Degree Days 12 11  
Month to date heating degree days 205 172  
Since 1 July heating degree days 243 238  
Cooling Degree Days 0 0  
Month to date cooling degree days 43 23  
Year to date cooling degree days 537 350  
Growing Degree Days 3 (Base 50)    
Moisture  
Dew Point 45 °F    
Average Humidity 76    
Maximum Humidity 100    
Minimum Humidity 52    
Precipitation  
Precipitation 0.00 in 0.12 in 1.93 in (1975)
Month to date precipitation 2.43 2.90  
Year to date precipitation 27.70 28.71  
Sea Level Pressure  
Sea Level Pressure 30.08 in    
Wind  
Wind Speed 5 mph (NNE)    
Max Wind Speed 14 mph    
Max Gust Speed 18 mph    
Visibility 8 miles    
Events Fog    
T = Trace of Precipitation, MM = Missing Value Source: NWS Daily Summary

Daily Weather History Graph

Daily Weather History Graph

Search for Another Location

Airport:

Trip Planner

Search our weather history database for the weather conditions in past years. The results will help you decide how hot, cold, wet, or windy it might be!

Date:

Astronomy

Sep. 26, 2013 Rise Set
Actual Time 6:46 AM EDT 6:44 PM EDT
Civil Twilight 6:17 AM EDT 7:12 PM EDT
Nautical Twilight 5:44 AM EDT 7:45 PM EDT
Astronomical Twilight 5:10 AM EDT 8:19 PM EDT
Moon 11:31 PM EDT (9/26) 1:45 PM EDT (9/26)
Length of Visible Light 12h 54m
Length of Day
11h 57m
Waning Gibbous, 55% of the Moon is Illuminated
Sep 26
Waning Gibbous
Sep 26
Last Quarter
Oct 4
New
Oct 11
First Quarter
Oct 18
Full

Hourly Weather History & Observations

Time (EDT) Temp. Windchill Dew Point Humidity Pressure Visibility Wind Dir Wind Speed Gust Speed Precip Events Conditions
12:53 AM 51.1 °F - 46.9 °F 86% 30.02 in 10.0 mi North 4.6 mph - N/A   Clear
1:53 AM 54.0 °F - 46.9 °F 77% 30.03 in 10.0 mi NNE 8.1 mph - N/A   Scattered Clouds
2:00 AM 53.6 °F - 46.4 °F 77% 30.02 in 10.0 mi NE 8.1 mph - N/A   Mostly Cloudy
2:23 AM 51.8 °F - 46.4 °F 82% 30.02 in 10.0 mi Calm Calm - N/A   Scattered Clouds
2:53 AM 46.9 °F - 45.0 °F 93% 30.04 in 10.0 mi Calm Calm - N/A   Partly Cloudy
3:27 AM 44.6 °F - 44.6 °F 100% 30.03 in 1.2 mi Calm Calm - N/A   Partly Cloudy
3:30 AM 44.6 °F - 44.6 °F 100% 30.03 in 0.5 mi Calm Calm - N/A Fog Fog
3:40 AM 44.6 °F - 44.6 °F 100% 30.03 in 3.0 mi Calm Calm - N/A   Scattered Clouds
3:53 AM 44.1 °F 42.5 °F 43.0 °F 96% 30.04 in 2.5 mi North 3.5 mph - N/A   Scattered Clouds
3:58 AM 44.6 °F 43.1 °F 42.8 °F 93% 30.03 in 1.8 mi NNW 3.5 mph - N/A   Scattered Clouds
4:12 AM 44.6 °F 42.2 °F 44.6 °F 100% 30.03 in 4.0 mi North 4.6 mph - N/A   Clear
4:31 AM 42.8 °F - 42.8 °F 100% 30.04 in 1.0 mi Calm Calm - N/A   Clear
4:37 AM 42.8 °F - 42.8 °F 100% 30.04 in 4.0 mi Calm Calm - N/A   Clear
4:53 AM 44.1 °F - 44.1 °F 100% 30.04 in 9.0 mi Calm Calm - N/A   Partly Cloudy
5:53 AM 42.1 °F 40.2 °F 41.0 °F 96% 30.05 in 10.0 mi NNE 3.5 mph - N/A   Clear
6:53 AM 44.1 °F - 41.0 °F 89% 30.07 in 10.0 mi Calm Calm - N/A   Scattered Clouds
7:53 AM 45.0 °F - 43.0 °F 93% 30.09 in 10.0 mi Calm Calm - N/A   Partly Cloudy
8:53 AM 52.0 °F - 46.0 °F 80% 30.10 in 10.0 mi East 5.8 mph - N/A   Clear
9:53 AM 54.0 °F - 48.0 °F 80% 30.11 in 10.0 mi NE 5.8 mph - N/A   Clear
10:22 AM 55.4 °F - 46.4 °F 72% 30.10 in 10.0 mi ENE 11.5 mph - N/A   Mostly Cloudy
10:53 AM 57.0 °F - 45.0 °F 64% 30.11 in 10.0 mi ENE 6.9 mph - N/A   Mostly Cloudy
11:07 AM 57.2 °F - 46.4 °F 67% 30.10 in 10.0 mi NE 11.5 mph - N/A   Scattered Clouds
11:53 AM 59.0 °F - 46.0 °F 62% 30.10 in 10.0 mi North 5.8 mph - N/A   Overcast
12:53 PM 61.0 °F - 45.0 °F 56% 30.09 in 10.0 mi Variable 6.9 mph 16.1 mph N/A   Scattered Clouds
1:53 PM 62.1 °F - 46.0 °F 56% 30.08 in 10.0 mi NE 8.1 mph - N/A   Mostly Cloudy
2:53 PM 64.9 °F - 46.9 °F 52% 30.08 in 10.0 mi NE 9.2 mph - N/A   Scattered Clouds
3:53 PM 64.0 °F - 46.0 °F 52% 30.07 in 10.0 mi ENE 11.5 mph - N/A   Partly Cloudy
4:53 PM 63.0 °F - 45.0 °F 52% 30.09 in 10.0 mi NE 10.4 mph - N/A   Clear
5:53 PM 62.1 °F - 46.9 °F 58% 30.10 in 10.0 mi NE 8.1 mph - N/A   Clear
6:53 PM 59.0 °F - 46.0 °F 62% 30.12 in 10.0 mi NE 10.4 mph - N/A   Clear
7:53 PM 51.1 °F - 46.0 °F 83% 30.14 in 10.0 mi NNE 4.6 mph - N/A   Clear
8:53 PM 52.0 °F - 45.0 °F 77% 30.15 in 10.0 mi North 4.6 mph - N/A   Clear
9:53 PM 51.1 °F - 45.0 °F 80% 30.16 in 10.0 mi NNE 5.8 mph - N/A   Clear
10:53 PM 48.9 °F - 44.1 °F 83% 30.17 in 10.0 mi North 6.9 mph - N/A   Clear
11:53 PM 46.0 °F - 45.0 °F 96% 30.17 in 10.0 mi Calm Calm - N/A   Clear